logo
Search for airport 
image banner adimage banner adimage banner ad
image banner ad

SBJU - Orlando Bezerra De Menezes

Located in Juazeiro Do Norte, Brazil

ICAO - SBJU, IATA - JDO

Data provided by Airmate  

General information

Coordinates: S7°13'9" W39°16'10"
Elevation is 1342 feet MSL.
Magnetic variation is -21.766666667° East
View others Airports in Ceará

Operational data

Special qualification required
Current time UTC:
Current local time:
Weather
METAR: SBJU 201100Z 05004KT 9999 BKN020 25/23 Q1017
View NOTAMs / SUP AIP / TFR affecting this airport [VIEW]
Communications frequencies: [VIEW]

Runways:

RWY identifierQFULength (ft)Width (ft)SurfaceLDA (ft)
136759919ASPH
316759919ASPH

Airport contact information

Address: Juazeiro Do Norte Brazil

Satellite view of SBJU